Powrót do katalogu

NOVA 3

AktywnyNawigacjaPO
NORAD 15362·PAYLOAD·🇺🇸 United States

Wystrzelony Oct 12, 1984 z Vandenberg Space Force Base

Loading…

Następne Przeloty (najbliższe 24 godziny)

TLE

ŚwieżeSource: Space-Track

Epoka: Sep 14, 2026, 11:36 UTC

1 15362U 84110A   26257.48396171  .00000050  00000-0  99362-4 0  9990
2 15362  90.1113  83.6372 0029827 290.7646  97.2963 13.23076631 23446

Śledź NOVA 3 w czasie rzeczywistym z AllMySat

Download on the App Store